Погода в Владикавказе

Поиск расширенной информации на нашем сайте:

Полезная информация:

Новости сайта



02.01.2020
Опубликован Долгосрочный прогноз погоды по городам России и ближнего зарубежья на январь 2020 года.
Карты: Прогноз на январь и февраль 2020 года, Сравнение прогнозируемой аномалии приземной температуры воздуха на январь 2020 года по разным моделям.




Погода в Владикавказе - сегодня

Время (UTC), дата Ветер
(°,м/с) 
Видим.   Явления Облачность Т
(°С)
Тd
(°С)
f(%) Тe
(°С)
Pmin
(гПа)
dP
(гПа)
Po
(мм)
O2
(г/м3)
Тmin Tmax R s Состояние
почвы
15 18.10.20 280 (З) 20000 м    1/0 средняя 
[Ac trans]
+20.5 +11 54 +24  1010.9  0.7  699  260    +26.3       
18 18.10.20 160 (Ю) 10 км    ясно 
+14.6 +0.3 38 +15  1016.2  0.6  702  268           
21 18.10.20 160 (Ю) 10 км    ясно 
+12 +0.3 45 +13  1016.6  -0.4  701  271           
00 19.10.20 180 (Ю) 10 км    ясно 
+10.7 +0.7 50 +12  1017.4  0.4  702  272           
03 19.10.20 160 (Ю) 10 км    ясно 
+9.5 +0.7 54 +11  1019.3  1.4  703  273  +9.2        сухая 
06 19.10.20 040 (СВ) 20000 м    ясно 
+17.6 +3.4 39 +19  1016.9  703  265           
09 19.10.20 080 (В) 20000 м    6/0 верхняя 
[Cs]
+21.2 +3.9 32 +21  1013.7  -2  701  261           
12 19.10.20 320 (СЗ) 20000 м    9/0 средняя, верхняя 
[Ac As|Cs]
+21.9 +5.8 35 +22  1012.9  -0.5  701  260           
15 19.10.20 тихо ()   10 км    5/0 средняя 
[Ac As]
+15.4 +8.1 62 +15  1014.9  0.2  701  266    +23.1       
18 19.10.20 160 (Ю) 10 км    8/6 600 м средняя 
[Sc|Ac As]
+13 +7.9 71 +14  1016.3  0.6  701  268           
21 19.10.20 290 (З) 10 км    10/10 600 м 
[Sc]
+14.6 +7.4 62 +15  1020.2  4.1  704  268           
00 20.10.20 280 (З) 10 км  слаб. ливневой дождь  10/10 600 м кучево-дожд. 
[Cb cap]
+12 +10.1 88 +15  1022.6  1.5  706  270           
03 20.10.20 330 (СЗ) 10 км  {ливн. осадки}  10/10 600 м 
[Sc]
+10.9 +8 82 +12  1024.7  1.6  707  272  +10.8    0.9     
06 20.10.20 тихо ()   10 км  слаб. морось{ливн. осадки}  10/10 300 м 
[Frnb]
+10.1 +7.2 82 +10  1026.1  708  274  +9.6         
09 20.10.20 340 (С) 2000 м  слаб. дождь{морось}  10/10 300 м 
[Frnb|Ns]
+9.6 +7.7 88 +11  1025.3  -0.8  707  274           
12 20.10.20 260 (З) 2000 м  дымка{дождь, морось}  10/10 300 м 
[Sc]
+10.9 +7.6 80 +12  1024.1  -0.8  706  272           
15 20.10.20 150 (ЮВ) 10 км  в посл. час ливневой дождь  10/10 300 м 
[Sc diur, vesp]
+10.1 +7.2 82 +11  1025  0.6  707  273    +11.4  0.2     
18 20.10.20 260 (З) 4000 м  слаб. дождь{ливн. осадки}  10/10 300 м 
[Frnb|Ns]
+8.7 +7 89 +10  1025.8  0.4  707  275           
21 20.10.20 тихо ()   4000 м  {дождь}  10/10 300 м 
[Sc]
+8.9 +7.1 88 +9  1026.4  0.6  708  275           
00 21.10.20 тихо ()   н/о    н/о 
+9.1 +7.2 88 +9  1026.7  0.3  708  275           
03 21.10.20 300 (СЗ) 10 км  слаб. морось  10/10 300 м 
[St]
+8.7 +6.8 88 +9  1028.1  1.2  709  275  +8.6    0.4     
06 21.10.20 290 (З) 1000 м  морось  10/10 200 м 
[St]
+7.6 +6.3 91 +8  1030.8  2.2  710  277  +7.6         
09 21.10.20 080 (В) 1000 м  дымка{морось}  10/10 300 м 
[St]
+8 +5.8 86 +9  1029.7  -1  710  277           
12 21.10.20 300 (СЗ) 2000 м  дымка{морось}  10/10 300 м 
[Sc]
+10 +5.5 74 +11  1029.1  710  275           
15 21.10.20 170 (Ю) 10 км    ясно 
+7.2 +4.9 85 +8  1029.1  -0.7  709  277    +10.9     
Время (UTC), дата Ветер
(°,м/с) 
Видим.   Явления Облачность Т
(°С)
Тd
(°С)
f(%) Тe
(°С)
Pmin
(гПа)
dP
(гПа)
Po
(мм)
O2
(г/м3)
Тmin Tmax R s Состояние
почвы

Для получения пояснительной информации подведите курсор к названию столбца.

ПОГОДА в Владикавказе - архив

Всё, что Вы хотите узнать о погоде в Владикавказе - удобно и подробно!

Выберите нужную дату (начиная с 1 января 2019* года) и нажмите кнопку "Найти".
Будут отображены архивные сводки погоды по пункту Владикавказ, начиная с указанной даты.


Отображать данные в формате CSV (для использования в таблицах Excel)


Внимание! Наш архив погоды предназначен исключительно для личного некоммерческого использования в познавательных целях. Если Вам необходимы официальные справки о состоянии погоды (для производственных, юридических, коммерческих и т.п. целей), обращайтесь в органы Росгидромета.

*Примечание: данная дата относится к архиву по метеостанциям СССР (Россия, СНГ, Балтия).
Архив по метеостанциям Зарубежной Европы и Азии (кроме Китая) хранится 10 дней, по другим регионам земного шара (Китай, Африка, Америка, Австралия, Океания) - 1 день.

Владикавказ - район местоположения метеостанции


Название, широта, долгота, высота метеостанции:
Владикавказ 43.1°ш. 44.6°д. 703 м над ур. моря [Российская Федерация]

Дополнительная информация

В oтличие oт бoльшинства пoгoдных сайтoв мы публикуем пoдрoбную метеoинфoрмацию в детальнoм прoфессиoнальнoм фoрмате.

Характеристики температуры и влажнoсти вoздуха измеряются на высoте 2 м в тени вдали oт зданий и деревьев.
Скoрoсть ветра измеряется на высoте 10 м (на урoвне рoста челoвека скoрoсть ветра ниже в 1.5-2 раза). Если метеoстанция нахoдится в гoрoде или в лесу, тo скoрoсть ветра занижена на 2-4 м/с пo сравнению с oткрытым местoм. Скoрoсть ветра над акватoриями крупных рек и oзёр, а также на вершинах хoлмoв на 2-5 м/с выше, чем в oбычных услoвиях.
Атмoсфернoе давление в разных тoчках местнoсти мoжет значительнo oтличаться oт давления на метеoстанции, в зависимoсти oт услoвий рельефа (при пoдъёме на 10 м давление пoнижается примернo на 1 мм рт.ст.).